EW0642 Weather Reports


Display with metric or nautical units.
time (UTC)temp
F
wind
direction
speed
MPH
gust
MPH
rain 1hr
in
rain 24hr
in
rain mn
in
humidity
%
barometer
mb
20260906031525 67 0 0.0 0.0 0.00 0.00 0.00 86 1012.7
20260906031027 67 0 0.0 0.0 0.00 0.00 0.00 85 1012.6
20260906030504 67 0 0.0 0.0 0.00 0.00 0.00 84 1012.6
20260906030025 67 0 0.0 0.0 0.00 0.00 0.00 84 1012.5
20260906025526 68 0 0.0 0.0 0.00 0.00 0.00 83 1012.4
20260906025025 68 0 0.0 0.0 0.00 0.00 0.00 83 1012.5
20260906024526 68 0 0.0 0.0 0.00 0.00 0.00 83 1012.5
20260906024025 68 0 0.0 0.0 0.00 0.00 0.00 83 1012.5
20260906023526 68 0 0.0 0.0 0.00 0.00 0.00 83 1012.5
20260906023004 69 0 0.0 0.0 0.00 0.00 0.00 82 1012.4
20260906022526 69 0 0.0 0.0 0.00 0.00 0.00 82 1012.4
20260906022025 69 0 0.0 0.0 0.00 0.00 0.00 82 1012.4
20260906021526 69 0 0.0 0.0 0.00 0.00 0.00 81 1012.3
20260906021025 70 0 0.0 0.0 0.00 0.00 0.00 80 1012.4
20260906020525 70 0 0.0 0.0 0.00 0.00 0.00 80 1012.4
20260906020004 70 0 0.0 0.0 0.00 0.00 0.00 79 1012.3
20260906015525 71 0 0.0 0.0 0.00 0.00 0.00 77 1012.2
20260906015025 71 0 0.0 0.0 0.00 0.00 0.00 77 1012.1
20260906014504 71 0 0.0 0.0 0.00 0.00 0.00 77 1012.1
20260906014026 72 0 0.0 0.0 0.00 0.00 0.00 76 1012.0
20260906013504 72 0 0.0 0.0 0.00 0.00 0.00 74 1012.0
20260906013025 72 0 0.0 0.0 0.00 0.00 0.00 74 1012.0
20260906012526 72 0 0.0 0.0 0.00 0.00 0.00 73 1011.9
20260906012005 73 0 0.0 0.0 0.00 0.00 0.00 72 1011.9
20260906011505 73 0 0.0 0.0 0.00 0.00 0.00 72 1011.9
20260906011004 73 0 0.0 0.0 0.00 0.00 0.00 72 1011.9
20260906010505 74 0 0.0 0.0 0.00 0.00 0.00 70 1011.8
20260906010004 74 0 0.0 0.0 0.00 0.00 0.00 70 1011.8
20260906005504 74 0 0.0 0.0 0.00 0.00 0.00 69 1011.8
20260906005005 75 0 0.0 0.0 0.00 0.00 0.00 68 1011.7
20260906004504 75 0 0.0 0.0 0.00 0.00 0.00 68 1011.7
20260906004004 75 0 0.0 0.0 0.00 0.00 0.00 68 1011.6
20260906003525 76 0 0.0 0.0 0.00 0.00 0.00 68 1011.5
20260906003004 76 0 0.0 0.0 0.00 0.00 0.00 68 1011.5
20260906002504 76 0 0.0 0.0 0.00 0.00 0.00 68 1011.5
20260906002004 76 0 0.0 0.0 0.00 0.00 0.00 67 1011.4
20260906001504 76 0 0.0 0.0 0.00 0.00 0.00 65 1011.4
20260906001026 77 0 0.0 0.0 0.00 0.00 0.00 65 1011.3
20260906000525 77 0 0.0 0.0 0.00 0.00 0.00 66 1011.3
20260906000005 77 320 0.0 3.0 0.00 0.00 0.00 66 1011.3
20260905235526 77 325 1.0 3.0 0.00 0.00 0.00 68 1011.3
20260905235025 77 339 1.0 2.0 0.00 0.00 0.00 66 1011.2
20260905234504 78 344 0.0 2.0 0.00 0.00 0.00 68 1011.1
20260905234025 78 323 0.0 2.0 0.00 0.00 0.00 69 1011.0
20260905233504 78 317 0.0 1.0 0.00 0.00 0.00 68 1011.0
20260905233005 79 317 0.0 2.0 0.00 0.00 0.00 70 1010.9
20260905232504 79 344 1.0 5.0 0.00 0.00 0.00 71 1010.9
20260905232006 79 31 1.0 5.0 0.00 0.00 0.00 69 1010.9
20260905231525 80 97 0.0 1.0 0.00 0.00 0.00 70 1010.8
20260905231004 80 97 0.0 1.0 0.00 0.00 0.00 69 1010.8
20260905230525 80 97 0.0 1.0 0.00 0.00 0.00 69 1010.9
20260905230025 80 97 0.0 1.0 0.00 0.00 0.00 70 1010.9
20260905225505 80 0 0.0 0.0 0.00 0.00 0.00 69 1010.9
20260905225004 80 97 0.0 1.0 0.00 0.00 0.00 69 1010.9
20260905224504 80 97 0.0 1.0 0.00 0.00 0.00 68 1010.8
20260905224004 80 87 0.0 2.0 0.00 0.00 0.00 68 1010.7
20260905223526 80 87 0.0 2.0 0.00 0.00 0.00 67 1010.7
20260905223005 81 89 0.0 2.0 0.00 0.00 0.00 67 1010.7
20260905222525 81 80 0.0 2.0 0.00 0.00 0.00 66 1010.6
20260905222004 81 76 0.0 2.0 0.00 0.00 0.00 66 1010.6
20260905221525 81 79 1.0 3.0 0.00 0.00 0.00 65 1010.5
20260905221025 81 74 1.0 3.0 0.00 0.00 0.00 64 1010.5
20260905220504 82 72 1.0 3.0 0.00 0.00 0.00 64 1010.5
20260905220004 82 75 1.0 3.0 0.00 0.00 0.00 63 1010.4
20260905215505 82 81 0.0 3.0 0.00 0.00 0.00 64 1010.3
20260905215004 82 95 0.0 3.0 0.00 0.00 0.00 63 1010.3
20260905214505 82 102 1.0 3.0 0.00 0.00 0.00 63 1010.3
20260905214004 83 98 1.0 4.0 0.00 0.00 0.00 63 1010.3
20260905213504 83 93 1.0 4.0 0.00 0.00 0.00 61 1010.2
20260905213004 83 88 1.0 4.0 0.00 0.00 0.00 62 1010.1
20260905212504 84 340 1.0 3.0 0.00 0.00 0.00 60 1010.0
20260905212004 85 328 1.0 3.0 0.00 0.00 0.00 59 1009.9
20260905211525 85 16 1.0 1.0 0.00 0.00 0.00 60 1009.9
20260905211025 85 359 1.0 4.0 0.00 0.00 0.00 59 1009.8
20260905210526 86 12 1.0 4.0 0.00 0.00 0.00 57 1009.9
20260905210004 86 352 1.0 5.0 0.00 0.00 0.00 58 1009.9
20260905205527 86 344 1.0 5.0 0.00 0.00 0.00 55 1009.9
20260905205025 86 347 1.0 4.0 0.00 0.00 0.00 57 1009.9
20260905204505 86 325 2.0 4.0 0.00 0.00 0.00 55 1009.9
20260905204004 86 302 1.0 4.0 0.00 0.00 0.00 56 1010.0
20260905203505 87 309 2.0 5.0 0.00 0.00 0.00 56 1010.1
20260905203026 87 312 2.0 5.0 0.00 0.00 0.00 56 1010.1
20260905202504 87 311 2.0 5.0 0.00 0.00 0.00 55 1010.1
20260905202004 87 298 2.0 5.0 0.00 0.00 0.00 55 1010.0
20260905201525 86 297 1.0 5.0 0.00 0.00 0.00 57 1010.1
20260905201006 86 301 1.0 5.0 0.00 0.00 0.00 55 1010.0
20260905200526 86 315 1.0 5.0 0.00 0.00 0.00 56 1010.1
20260905200004 86 44 1.0 4.0 0.00 0.00 0.00 57 1010.2
20260905195526 86 40 2.0 4.0 0.00 0.00 0.00 57 1010.2
20260905195004 86 24 1.0 4.0 0.00 0.00 0.00 56 1010.2
20260905194525 86 49 1.0 3.0 0.00 0.00 0.00 57 1010.3
20260905194025 86 51 1.0 3.0 0.00 0.00 0.00 57 1010.2
20260905193504 86 5 1.0 3.0 0.00 0.00 0.00 54 1010.2
20260905193025 86 357 2.0 8.0 0.00 0.00 0.00 57 1010.5
20260905192505 85 43 2.0 8.0 0.00 0.00 0.00 57 1010.4
20260905192004 86 86 2.0 6.0 0.00 0.00 0.00 57 1010.4
20260905191506 85 88 2.0 6.0 0.00 0.00 0.00 56 1010.5
20260905191006 85 49 1.0 4.0 0.00 0.00 0.00 57 1010.6
20260905190504 85 71 1.0 4.0 0.00 0.00 0.00 60 1010.5
20260905190025 83 83 2.0 4.0 0.00 0.00 0.00 61 1010.6
20260905185526 83 70 2.0 6.0 0.00 0.00 0.00 59 1010.7
20260905185004 83 64 2.0 6.0 0.00 0.00 0.00 59 1010.9
20260905184525 83 84 2.0 7.0 0.00 0.00 0.00 61 1011.0
20260905184025 83 90 1.0 7.0 0.00 0.00 0.00 59 1011.1
20260905183504 83 86 1.0 3.0 0.00 0.00 0.00 60 1011.2
20260905183025 83 98 1.0 4.0 0.00 0.00 0.00 61 1011.2
20260905182525 83 107 1.0 4.0 0.00 0.00 0.00 60 1011.3
20260905182004 83 104 1.0 4.0 0.00 0.00 0.00 60 1011.3
20260905181525 83 87 1.0 4.0 0.00 0.00 0.00 59 1011.4
20260905181004 83 56 1.0 4.0 0.00 0.00 0.00 62 1011.5
20260905180504 83 64 1.0 4.0 0.00 0.00 0.00 59 1011.5
20260905180004 83 62 1.0 3.0 0.00 0.00 0.00 60 1011.5
20260905175505 83 90 1.0 5.0 0.00 0.00 0.00 61 1011.4
20260905175004 83 98 1.0 5.0 0.00 0.00 0.00 62 1011.5
20260905174504 83 66 1.0 5.0 0.00 0.00 0.00 61 1011.5
20260905174004 83 13 1.0 2.0 0.00 0.00 0.00 59 1011.6
20260905173504 83 337 1.0 2.0 0.00 0.00 0.00 61 1011.7
20260905173025 83 4 1.0 4.0 0.00 0.00 0.00 60 1011.6
20260905172504 83 360 1.0 4.0 0.00 0.00 0.00 62 1011.6
20260905172005 83 6 1.0 4.0 0.00 0.00 0.00 61 1011.6
20260905171504 83 22 1.0 3.0 0.00 0.00 0.00 63 1011.7
20260905171004 84 63 1.0 4.0 0.00 0.00 0.00 61 1011.7
20260905170504 84 20 1.0 4.0 0.00 0.00 0.00 63 1011.7
20260905170004 84 318 1.0 3.0 0.00 0.00 0.00 62 1011.8
20260905165505 84 30 1.0 2.0 0.00 0.00 0.00 65 1011.7
20260905165004 84 14 1.0 4.0 0.00 0.00 0.00 63 1011.6
20260905164504 84 356 1.0 4.0 0.00 0.00 0.00 63 1011.7
20260905164025 84 25 1.0 2.0 0.00 0.00 0.00 63 1011.7
20260905163504 83 48 1.0 4.0 0.00 0.00 0.00 63 1011.7
20260905163005 83 23 1.0 4.0 0.00 0.00 0.00 62 1011.8
20260905162525 83 342 1.0 3.0 0.00 0.00 0.00 66 1011.9
20260905162025 83 22 1.0 3.0 0.00 0.00 0.00 65 1012.1
20260905161526 83 39 1.0 3.0 0.00 0.00 0.00 66 1012.2
20260905161004 82 25 1.0 3.0 0.00 0.00 0.00 67 1012.3
20260905160525 82 29 0.0 3.0 0.00 0.00 0.00 68 1012.2
20260905160004 82 354 0.0 1.0 0.00 0.00 0.00 69 1012.2
20260905155504 82 0 0.0 0.0 0.00 0.00 0.00 69 1012.3
20260905155004 82 332 1.0 4.0 0.00 0.00 0.00 66 1012.4
20260905154525 82 4 1.0 4.0 0.00 0.00 0.00 66 1012.4
20260905154025 82 68 0.0 2.0 0.00 0.00 0.00 64 1012.4
20260905153525 82 69 0.0 3.0 0.00 0.00 0.00 66 1012.4
20260905153026 82 75 0.0 3.0 0.00 0.00 0.00 66 1012.5
20260905152504 82 58 0.0 2.0 0.00 0.00 0.00 66 1012.5
20260905152004 83 29 1.0 2.0 0.00 0.00 0.00 66 1012.5
20260905151504 83 358 1.0 3.0 0.00 0.00 0.00 65 1012.5
20260905151005 84 323 1.0 4.0 0.00 0.00 0.00 66 1012.4
20260905150504 84 316 2.0 4.0 0.00 0.00 0.00 65 1012.3
20260905150025 84 337 1.0 4.0 0.00 0.00 0.00 65 1012.3
20260905145504 84 26 1.0 4.0 0.00 0.00 0.00 67 1012.3
20260905145004 84 13 1.0 4.0 0.00 0.00 0.00 67 1012.1
20260905144526 84 339 2.0 4.0 0.00 0.00 0.00 67 1012.1
20260905144004 84 352 2.0 4.0 0.00 0.00 0.00 66 1012.1
20260905143504 84 49 1.0 3.0 0.00 0.00 0.00 66 1011.9
20260905143004 84 20 1.0 4.0 0.00 0.00 0.00 66 1011.9
20260905142525 84 351 1.0 4.0 0.00 0.00 0.00 66 1011.9
20260905142025 84 339 2.0 3.0 0.00 0.00 0.00 68 1011.8
20260905141525 83 360 2.0 6.0 0.00 0.00 0.00 67 1011.9
20260905141025 83 11 1.0 6.0 0.00 0.00 0.00 68 1011.8
20260905140504 82 350 1.0 4.0 0.00 0.00 0.00 70 1011.8
20260905140005 82 10 1.0 5.0 0.00 0.00 0.00 72 1011.8
20260905135504 81 39 1.0 5.0 0.00 0.00 0.00 73 1011.8
20260905135025 80 40 1.0 3.0 0.00 0.00 0.00 74 1011.9
20260905134504 80 32 1.0 3.0 0.00 0.00 0.00 76 1011.8
20260905134026 79 342 1.0 3.0 0.00 0.00 0.00 77 1011.9
20260905133526 78 318 1.0 2.0 0.00 0.00 0.00 78 1012.0
20260905133004 78 326 1.0 4.0 0.00 0.00 0.00 79 1012.0
20260905132525 78 332 1.0 5.0 0.00 0.00 0.00 79 1012.0
20260905132025 78 343 1.0 5.0 0.00 0.00 0.00 79 1012.0
20260905131505 78 351 1.0 5.0 0.00 0.00 0.00 80 1011.9
20260905131025 78 348 1.0 3.0 0.00 0.00 0.00 81 1011.8
20260905130525 77 18 1.0 4.0 0.00 0.00 0.00 81 1011.7
20260905130006 77 337 2.0 5.0 0.00 0.00 0.00 82 1011.7
20260905125505 76 318 1.0 5.0 0.00 0.00 0.00 84 1011.6
20260905125025 76 356 1.0 5.0 0.00 0.00 0.00 87 1011.4
20260905124525 75 349 1.0 4.0 0.00 0.00 0.00 88 1011.5
20260905124025 74 331 1.0 3.0 0.00 0.00 0.00 91 1011.6
20260905123504 74 330 1.0 4.0 0.00 0.00 0.00 92 1011.6
20260905123025 74 330 1.0 4.0 0.00 0.00 0.00 93 1011.6
20260905122525 74 331 1.0 3.0 0.00 0.00 0.00 94 1011.6
20260905122004 74 323 0.0 2.0 0.00 0.00 0.00 94 1011.6
20260905121504 74 323 1.0 4.0 0.00 0.00 0.00 94 1011.6
20260905121004 73 325 1.0 4.0 0.00 0.00 0.00 94 1011.5
20260905120525 73 346 0.0 2.0 0.00 0.00 0.00 95 1011.5
20260905120025 73 0 0.0 0.0 0.00 0.00 0.00 95 1011.3
20260905115504 73 330 0.0 2.0 0.00 0.00 0.00 94 1011.2
20260905115025 72 330 0.0 2.0 0.00 0.00 0.00 94 1011.1
20260905114525 72 332 0.0 1.0 0.00 0.00 0.00 94 1011.1
20260905114004 72 313 0.0 1.0 0.00 0.00 0.00 94 1011.1
20260905113525 72 313 0.0 1.0 0.00 0.00 0.00 94 1011.2
20260905113025 72 308 0.0 1.0 0.00 0.00 0.00 94 1011.2
20260905112505 72 307 0.0 1.0 0.00 0.00 0.00 94 1011.0
20260905112025 72 0 0.0 0.0 0.00 0.00 0.00 94 1010.9
20260905111504 71 0 0.0 0.0 0.00 0.00 0.00 93 1010.8
20260905111004 71 0 0.0 0.0 0.00 0.00 0.00 93 1010.8
20260905110504 72 0 0.0 0.0 0.00 0.00 0.00 93 1010.9
20260905110026 72 0 0.0 0.0 0.00 0.00 0.00 93 1010.8
20260905105504 72 0 0.0 0.0 0.00 0.00 0.00 93 1010.9
20260905105005 72 0 0.0 0.0 0.00 0.00 0.00 93 1010.7
20260905104525 72 0 0.0 0.0 0.00 0.00 0.00 93 1010.6
20260905104004 72 0 0.0 0.0 0.00 0.00 0.00 93 1010.5
20260905103525 72 277 0.0 1.0 0.00 0.00 0.00 93 1010.5
20260905103025 72 277 0.0 1.0 0.00 0.00 0.00 93 1010.5
20260905102505 72 277 0.0 1.0 0.00 0.00 0.00 92 1010.5
20260905102004 72 277 0.0 1.0 0.00 0.00 0.00 92 1010.5
20260905101525 72 0 0.0 0.0 0.00 0.00 0.00 92 1010.5
20260905101004 72 278 0.0 2.0 0.00 0.00 0.00 92 1010.4
20260905100504 72 278 0.0 2.0 0.00 0.00 0.00 92 1010.4
20260905100004 72 0 0.0 0.0 0.00 0.00 0.00 92 1010.3
20260905095504 72 0 0.0 0.0 0.00 0.00 0.00 92 1010.3
20260905095004 72 0 0.0 0.0 0.00 0.00 0.00 91 1010.3
20260905094504 73 0 0.0 0.0 0.00 0.00 0.00 91 1010.2
20260905094004 73 300 0.0 1.0 0.00 0.00 0.00 92 1010.2
20260905093504 73 300 0.0 1.0 0.00 0.00 0.00 92 1010.2
20260905093025 73 0 0.0 0.0 0.00 0.00 0.00 91 1010.0
20260905092504 73 0 0.0 0.0 0.00 0.00 0.00 91 1010.0
20260905092005 73 0 0.0 0.0 0.00 0.00 0.00 91 1010.0
20260905091525 73 0 0.0 0.0 0.00 0.00 0.00 91 1010.0
20260905091004 73 0 0.0 0.0 0.00 0.00 0.00 91 1009.9
20260905090526 73 280 0.0 1.0 0.00 0.00 0.00 91 1010.0
20260905090004 74 281 0.0 2.0 0.00 0.00 0.00 91 1010.0
20260905085525 74 282 0.0 2.0 0.00 0.00 0.00 91 1010.0
20260905085026 74 0 0.0 0.0 0.00 0.00 0.00 91 1010.0
20260905084525 74 300 0.0 2.0 0.00 0.00 0.00 91 1010.0
20260905084026 74 287 0.0 3.0 0.00 0.00 0.00 91 1010.0
20260905083504 74 284 1.0 4.0 0.00 0.00 0.00 90 1010.1
20260905083026 74 287 1.0 4.0 0.00 0.00 0.00 90 1010.1
20260905082504 74 290 1.0 3.0 0.00 0.00 0.00 90 1010.1
20260905082025 74 283 1.0 3.0 0.00 0.00 0.00 90 1010.2
20260905081525 74 286 1.0 2.0 0.00 0.00 0.00 90 1010.1
20260905081004 74 308 1.0 2.0 0.00 0.00 0.00 90 1010.2
20260905080525 74 299 1.0 3.0 0.00 0.00 0.00 90 1010.2
20260905080026 74 288 1.0 3.0 0.00 0.00 0.00 89 1010.3
20260905075504 75 274 1.0 3.0 0.00 0.00 0.00 89 1010.3
20260905075004 75 273 1.0 2.0 0.00 0.00 0.00 89 1010.3
20260905074504 75 277 1.0 6.0 0.00 0.00 0.00 89 1010.3
20260905074004 75 291 1.0 6.0 0.00 0.00 0.00 89 1010.4
20260905073504 75 288 1.0 6.0 0.00 0.00 0.00 89 1010.4
20260905073004 75 278 1.0 6.0 0.00 0.00 0.00 89 1010.3
20260905072504 75 272 1.0 7.0 0.00 0.00 0.00 89 1010.4
20260905072004 75 277 2.0 7.0 0.00 0.00 0.00 90 1010.4
20260905071504 75 291 1.0 7.0 0.00 0.00 0.00 90 1010.5
20260905071027 75 288 1.0 6.0 0.00 0.00 0.00 90 1010.5
20260905070525 75 283 2.0 6.0 0.00 0.00 0.00 90 1010.5
20260905070004 75 280 1.0 4.0 0.00 0.00 0.00 90 1010.6
20260905065504 75 275 2.0 5.0 0.00 0.00 0.00 90 1010.6
20260905065004 75 267 2.0 6.0 0.00 0.00 0.00 90 1010.7
20260905064506 75 278 1.0 6.0 0.00 0.00 0.00 90 1010.7
20260905064004 75 279 2.0 6.0 0.00 0.00 0.00 90 1010.8
20260905063526 75 263 2.0 6.0 0.00 0.00 0.00 90 1010.8
20260905063004 75 262 2.0 7.0 0.00 0.00 0.00 90 1010.8
20260905062504 75 266 2.0 7.0 0.00 0.00 0.00 91 1010.9
20260905062005 75 265 2.0 6.0 0.00 0.00 0.00 91 1010.8
20260905061505 75 268 2.0 6.0 0.00 0.00 0.00 91 1010.8
20260905061004 75 273 1.0 4.0 0.00 0.00 0.00 91 1010.9
20260905060526 75 260 2.0 7.0 0.00 0.00 0.00 91 1010.9
20260905060004 75 270 2.0 7.0 0.00 0.00 0.00 91 1010.9
20260905055525 75 273 2.0 6.0 0.00 0.00 0.00 91 1010.8
20260905055026 75 254 2.0 6.0 0.00 0.00 0.00 91 1010.9
20260905054504 75 258 2.0 6.0 0.00 0.00 0.00 91 1010.9
20260905054025 75 275 2.0 5.0 0.00 0.00 0.00 91 1011.0
20260905053525 75 277 1.0 4.0 0.00 0.00 0.00 91 1011.0
20260905053025 75 267 1.0 4.0 0.00 0.00 0.00 91 1011.1
20260905052504 75 258 2.0 7.0 0.00 0.00 0.00 91 1011.2
20260905052005 75 260 2.0 7.0 0.00 0.00 0.00 91 1011.2
20260905051525 76 269 2.0 6.0 0.00 0.00 0.00 91 1011.3
20260905051025 76 270 2.0 6.0 0.00 0.00 0.00 91 1011.4
20260905050525 76 259 2.0 7.0 0.00 0.00 0.00 91 1011.4
20260905050004 76 251 2.0 7.0 0.00 0.00 0.00 91 1011.5
20260905045526 76 252 2.0 7.0 0.00 0.00 0.00 91 1011.5
20260905045005 76 243 2.0 7.0 0.00 0.00 0.00 91 1011.6
20260905044504 76 238 2.0 7.0 0.00 0.00 0.00 91 1011.6
20260905044004 76 241 1.0 4.0 0.00 0.00 0.00 91 1011.7
20260905043506 76 247 1.0 4.0 0.00 0.00 0.00 91 1011.6
20260905043026 76 239 1.0 3.0 0.00 0.00 0.00 91 1011.5
20260905042504 76 241 1.0 3.0 0.00 0.00 0.00 91 1011.5
20260905042025 76 255 1.0 4.0 0.00 0.01 0.00 91 1011.5
20260905041526 76 257 2.0 5.0 0.00 0.01 0.00 91 1011.5
20260905041004 76 252 2.0 6.0 0.00 0.01 0.00 91 1011.6
20260905040525 76 260 2.0 6.0 0.00 0.01 0.00 91 1011.6
20260905040005 76 250 2.0 6.0 0.00 0.01 0.00 91 1011.7
20260905035504 76 219 2.0 4.0 0.00 0.01 0.01 91 1011.7
20260905035025 76 225 1.0 5.0 0.00 0.01 0.01 91 1011.7
20260905034525 77 217 1.0 5.0 0.00 0.01 0.01 91 1011.9
20260905034025 77 206 2.0 5.0 0.00 0.01 0.01 91 1011.9
20260905033505 77 201 2.0 4.0 0.00 0.01 0.01 91 1011.8
20260905033004 77 193 1.0 4.0 0.00 0.01 0.01 91 1011.8
20260905032525 77 212 1.0 4.0 0.00 0.01 0.01 91 1011.8
20260905032025 77 225 1.0 4.0 0.00 0.01 0.01 91 1011.8